Location: Kitt Peak
(31.9639°N, 111.5992°W)
Time: 04:15:29
(UTC-07:00)

AAUSAT CUBESAT 2 - Visible Passes

Search period start: 17 September 2024 00:00
Search period end: 27 September 2024 00:00
Orbit: 488 x 495 km, 97.6° (Epoch: 17 September)

Date Brightness Start Highest point End Pass type
(mag) Time Alt. Az. Time Alt. Az. Time Alt. Az.
17 Sep ? 04:19:46 10° NE 04:22:25 19° E 04:25:04 10° SE visible
18 Sep ? 05:30:20 10° N 05:33:39 35° WNW 05:36:57 10° SW visible
19 Sep ? 05:07:37 10° N 05:11:14 80° W 05:14:49 10° SSW visible
20 Sep ? 04:45:05 10° NNE 04:48:33 44° E 04:52:00 10° S visible
21 Sep ? 04:22:51 10° NE 04:25:38 21° E 04:28:25 10° SSE visible
22 Sep ? 05:32:46 10° N 05:36:03 33° WNW 05:39:18 10° SW visible
23 Sep ? 05:09:16 10° N 05:12:52 77° WNW 05:16:28 10° SSW visible
24 Sep ? 04:45:59 10° NNE 04:49:28 45° E 04:52:54 10° S visible
25 Sep ? 04:23:01 10° NE 04:25:47 21° E 04:28:33 10° SSE visible
26 Sep ? 05:32:06 10° N 05:35:24 34° WNW 05:38:41 10° SW visible
